Moscow Sheremetyevo, Russia

2:22 PM MSK on June 19, 2018 (GMT +0300)
Sheremetyevo

Weather History for UUEE - June, 2018

Change the Weather History Date:

Wednesday, June 13, 2018

  Actual Average Record
Temperature  
Mean Temperature 60 °F -  
Max Temperature 69 °F 69 °F 86 °F (1998)
Min Temperature 51 °F 50 °F 42 °F (2006)
Degree Days  
Heating Degree Days 5    
Growing Degree Days 10 (Base 50)    
Moisture  
Dew Point 52 °F    
Average Humidity 75    
Maximum Humidity 100    
Minimum Humidity 46    
Precipitation  
Precipitation 0.00 in - - ()
Sea Level Pressure  
Sea Level Pressure 29.61 in    
Wind  
Wind Speed 11 mph ()    
Max Wind Speed 16 mph    
Max Gust Speed 25 mph    
Visibility 6.2 miles    
Events      
Averages and records for this station are not official NWS values.
T = Trace of Precipitation, MM = Missing Value Source: Averaged Metar Reports

Daily Weather History Graph

Daily Weather History Graph

Search for Another Location

Airport or City:

Astronomy

Jun. 13, 2018 Rise Set
Actual Time 3:43 AM MSK 9:16 PM MSK
Civil Twilight 2:42 AM MSK 10:18 PM MSK
Nautical Twilight 1:02 AM MSK 11:57 PM MSK
Astronomical Twilight Sun does not set Sun does not set
Moon 3:52 AM MSK (6/13) 8:30 PM MSK (6/13)
Length of Visible Light 19h 36m
Length of Day
17h 32m
Waning Crescent, 0% of the Moon is Illuminated
Jun 13
Waning Crescent
Jun 13
New
Jun 20
First Quarter
Jun 28
Full
Jul 6
Last Quarter

Hourly Weather History & Observations

Time (MSK) Temp. Dew Point Humidity Pressure Visibility Wind Dir Wind Speed Gust Speed Precip Events Conditions
12:00 AM 60.8 °F 57.2 °F 88% 29.47 in - WSW 11.2 mph - N/A   Clear
12:30 AM 60.8 °F 57.2 °F 88% 29.47 in - SW 11.2 mph - N/A   Clear
1:00 AM 60.8 °F 57.2 °F 88% 29.47 in - SW 8.9 mph - N/A   Clear
1:30 AM 59.0 °F 57.2 °F 94% 29.47 in - SW 11.2 mph - N/A   Clear
2:00 AM 57.2 °F 55.4 °F 94% 29.47 in - SW 8.9 mph - N/A   Clear
2:30 AM 57.2 °F 55.4 °F 94% 29.47 in - SW 11.2 mph - N/A   Clear
3:00 AM 55.4 °F 55.4 °F 100% 29.47 in 6.2 mi WSW 11.2 mph - N/A   Scattered Clouds
3:30 AM 55.4 °F 55.4 °F 100% 29.47 in 6.2 mi WSW 8.9 mph - N/A   Mostly Cloudy
4:00 AM 55.4 °F 55.4 °F 100% 29.47 in 6.2 mi WSW 11.2 mph - N/A   Mostly Cloudy
4:30 AM 57.2 °F 55.4 °F 94% 29.47 in 6.2 mi West 13.4 mph - N/A   Mostly Cloudy
5:00 AM 57.2 °F 55.4 °F 94% 29.50 in 6.2 mi West 11.2 mph - N/A   Mostly Cloudy
5:30 AM 57.2 °F 55.4 °F 94% 29.50 in 6.2 mi West 11.2 mph - N/A   Mostly Cloudy
6:00 AM 57.2 °F 55.4 °F 94% 29.50 in 6.2 mi West 11.2 mph - N/A   Mostly Cloudy
6:30 AM 57.2 °F 55.4 °F 94% 29.50 in 6.2 mi West 8.9 mph - N/A   Mostly Cloudy
7:00 AM 57.2 °F 55.4 °F 94% 29.53 in 6.2 mi West 13.4 mph - N/A   Overcast
7:30 AM 57.2 °F 53.6 °F 88% 29.53 in 6.2 mi West 15.7 mph - N/A   Mostly Cloudy
8:00 AM 59.0 °F 53.6 °F 82% 29.53 in 6.2 mi West 13.4 mph - N/A   Mostly Cloudy
8:30 AM 59.0 °F 53.6 °F 82% 29.53 in 6.2 mi West 15.7 mph - N/A   Mostly Cloudy
9:00 AM 60.8 °F 53.6 °F 77% 29.56 in 6.2 mi West 15.7 mph - N/A   Mostly Cloudy
9:30 AM 60.8 °F 53.6 °F 77% 29.56 in 6.2 mi WNW 15.7 mph - N/A   Mostly Cloudy
10:00 AM 60.8 °F 53.6 °F 77% 29.56 in 6.2 mi NW 13.4 mph - N/A   Mostly Cloudy
10:30 AM 62.6 °F 55.4 °F 77% 29.59 in 6.2 mi WNW 13.4 mph - N/A   Mostly Cloudy
11:00 AM 62.6 °F 53.6 °F 72% 29.59 in 6.2 mi WNW 13.4 mph - N/A   Mostly Cloudy
11:30 AM 60.8 °F 53.6 °F 77% 29.62 in 6.2 mi West 15.7 mph - N/A   Mostly Cloudy
12:00 PM 60.8 °F 53.6 °F 77% 29.62 in 6.2 mi WNW 11.2 mph - N/A   Mostly Cloudy
12:30 PM 64.4 °F 53.6 °F 68% 29.62 in 6.2 mi NW 11.2 mph - N/A   Mostly Cloudy
1:00 PM 66.2 °F 51.8 °F 60% 29.62 in 6.2 mi WNW 8.9 mph - N/A   Mostly Cloudy
1:30 PM 66.2 °F 51.8 °F 60% 29.62 in 6.2 mi West 11.2 mph 22.4 mph N/A   Mostly Cloudy
2:00 PM 68.0 °F 48.2 °F 49% 29.62 in 6.2 mi WNW 15.7 mph - N/A   Mostly Cloudy
2:30 PM 68.0 °F 46.4 °F 46% 29.65 in - WNW 15.7 mph - N/A   Clear
3:00 PM 69.8 °F 50.0 °F 49% 29.65 in - WNW 15.7 mph - N/A   Clear
3:30 PM 69.8 °F 50.0 °F 49% 29.65 in - NNW 11.2 mph - N/A   Clear
4:00 PM 68.0 °F 50.0 °F 52% 29.65 in - NNW 13.4 mph - N/A   Clear
4:30 PM 66.2 °F 50.0 °F 56% 29.68 in - NNW 13.4 mph 24.6 mph N/A   Clear
5:00 PM 66.2 °F 50.0 °F 56% 29.68 in 6.2 mi NNW 13.4 mph - N/A   Mostly Cloudy
5:30 PM 64.4 °F 51.8 °F 64% 29.71 in - NNW 15.7 mph - N/A   Clear
6:00 PM 64.4 °F 50.0 °F 59% 29.71 in 6.2 mi NNW 13.4 mph - N/A   Mostly Cloudy
6:30 PM 64.4 °F 51.8 °F 64% 29.74 in 6.2 mi NNW 11.2 mph - N/A   Scattered Clouds
7:00 PM 62.6 °F 50.0 °F 63% 29.74 in 6.2 mi NNW 11.2 mph - N/A   Scattered Clouds
7:30 PM 60.8 °F 48.2 °F 63% 29.74 in - NNW 11.2 mph - N/A   Clear
8:00 PM 60.8 °F 48.2 °F 63% 29.77 in - North 11.2 mph - N/A   Clear
8:30 PM 59.0 °F 48.2 °F 67% 29.77 in - North 8.9 mph - N/A   Clear
9:00 PM 57.2 °F 46.4 °F 67% 29.80 in - North 8.9 mph - N/A   Clear
9:30 PM 57.2 °F 46.4 °F 67% 29.80 in - North 6.7 mph - N/A   Clear
10:00 PM 55.4 °F 46.4 °F 72% 29.83 in - NNE 8.9 mph - N/A   Clear
10:30 PM 53.6 °F 44.6 °F 72% 29.83 in - NNE 11.2 mph - N/A   Clear
11:00 PM 51.8 °F 44.6 °F 76% 29.86 in - NNE 11.2 mph - N/A   Clear
11:30 PM 51.8 °F 42.8 °F 71% 29.86 in - NNE 6.7 mph - N/A   Clear